[[{"header":{"parameterUnit":"m.s-1","parameterCategory":1,"la1":30.2991,"la2":30.254,"lo1":-89.0895,"lo2":-89.0444,"dy":0.0017,"dx":0.0017,"nx":28,"ny":28,"refTime":"2025-04-11T09:00:00:Z","depth":0,"parameterNumber":2,"parameterNumberName":"U-component_of_WINDS"},"data":[0,0,0,0,0,0,0,0,0,0,0,0,0,0,0,0,0,0,0,0,0,0,0,0,0,0,0,0,0,0,0,0,0,0,0,0,0,0,0,0,0,0,0,0,0,0,0,0,0,0,0,0,0,0,0,0,0,0,-0.6287,-0.6287,0,-0.6339,-0.634,-0.634,-0.6266,-0.6264,-0.6261,-0.6259,-0.6315,-0.6319,-0.6323,0,0,0,0,0,0,0,0,0,0,0,0,0,-0.6125,-0.6129,-0.6287,-0.6288,-0.6288,-0.6339,-0.634,-0.634,-0.6267,-0.6264,-0.626,-0.6257,-0.6314,-0.6318,-0.6323,0,0,0,0,0,0,0,0,0,0,0,0,0,-0.6188,-0.613,-0.6287,-0.6258,-0.6255,-0.6339,-0.634,-0.6341,-0.6267,-0.6264,-0.626,-0.6256,-0.6312,-0.6318,-0.6324,-0.6439,0,0,-0.6342,-0.6344,0,0,0,0,0,0,0,0,-0.6185,-0.6194,-0.6261,-0.626,-0.6257,-0.6292,-0.6303,-0.6374,-0.6268,-0.6263,-0.6259,-0.6254,-0.6311,-0.6316,-0.6335,-0.6442,-0.6444,-0.6342,-0.6346,-0.6348,-0.635,0,0,0,0,0,0,0,-0.6181,-0.6192,-0.6308,-0.6262,-0.626,-0.6242,-0.6247,-0.6316,-0.6308,-0.6263,-0.6258,-0.6265,-0.6309,-0.6329,-0.6336,-0.6445,-0.6342,-0.6347,-0.6351,-0.6353,-0.6649,-0.6653,0,0,0,0,0,0,-0.6179,-0.6189,-0.6306,-0.6309,-0.6211,-0.6248,-0.6254,-0.6285,-0.6307,-0.6307,-0.6268,-0.6261,-0.6321,-0.6329,-0.6337,-0.6475,-0.6348,-0.6354,-0.6357,-0.6644,-0.665,-0.6654,0,0,0,0,0,0,-0.6176,-0.6191,-0.6304,-0.6247,-0.626,-0.6255,-0.6291,-0.6288,-0.6309,-0.6311,-0.631,-0.6291,-0.6318,-0.6329,-0.6414,-0.6476,-0.6357,-0.6362,-0.6639,-0.6646,-0.6652,-0.6751,0,0,0,0,0,0,-0.6172,-0.619,-0.6234,-0.6249,-0.6264,-0.638,-0.6295,-0.6292,-0.6319,-0.631,-0.6332,-0.6332,-0.6316,-0.6406,-0.642,-0.6482,-0.6367,-0.6634,-0.6642,-0.665,-0.6742,-0.676,-0.6775,0,0,0,0,0,-0.6166,-0.626,-0.6236,-0.6251,-0.6318,-0.6383,-0.6392,-0.6371,-0.6324,-0.6368,-0.6369,-0.6331,-0.6466,-0.6415,-0.6431,-0.6495,-0.663,-0.664,-0.6649,-0.6735,-0.6756,-0.6775,0,0,0,0,0,0,-0.6254,-0.6261,-0.6235,-0.6336,-0.636,-0.6371,-0.6426,-0.6395,-0.6433,-0.6424,-0.6397,-0.6402,-0.6494,-0.6502,-0.6445,-0.6608,-0.654,-0.6553,-0.66,-0.662,-0.6636,-0.6634,-0.6371,0,0,0,0,0,-0.6284,-0.6336,-0.634,-0.6429,-0.6441,-0.6432,-0.6459,-0.6441,-0.6465,-0.6475,-0.6482,-0.6507,-0.6555,-0.6587,-0.6632,-0.6741,-0.6746,-0.6793,-0.681,-0.6823,-0.6836,-0.6896,-0.6917,-0.6686,-0.6686,-0.6686,0,0,-0.6349,-0.6359,-0.6394,-0.6446,-0.6462,-0.6517,-0.6441,-0.6502,-0.6543,-0.6484,-0.6566,-0.6571,-0.6597,-0.6695,-0.6739,-0.6706,-0.69,-0.6835,-0.6846,-0.6852,-0.6908,-0.693,-0.6949,-0.6693,-0.6691,-0.669,0,0,-0.6495,-0.6507,-0.6583,-0.66,-0.6625,-0.6617,-0.6635,-0.6651,-0.6653,-0.6733,-0.669,-0.6738,-0.682,-0.6841,-0.6862,-0.7014,-0.698,-0.7029,-0.7116,-0.7174,-0.7193,-0.7209,-0.7265,-0.7285,-0.7041,-0.7041,-0.7041,0,-0.6573,-0.6654,-0.6626,-0.6691,-0.6716,-0.6663,-0.674,-0.6758,-0.6796,-0.6815,-0.6775,-0.6878,-0.6891,-0.6994,-0.7031,-0.7049,-0.707,-0.7028,-0.7192,-0.7208,-0.7222,-0.7276,-0.7297,-0.7047,-0.7046,-0.7045,-0.7045,0,-0.6749,-0.6805,-0.6863,-0.6901,-0.6931,-0.7002,-0.6986,-0.702,-0.6998,-0.6995,-0.7078,-0.7091,-0.7138,-0.716,-0.714,-0.726,-0.7238,-0.7196,-0.7128,-0.7251,-0.7301,-0.7321,-0.7055,-0.7053,-0.7051,-0.705,0,0,-0.6956,-0.6975,-0.6997,-0.7013,-0.7035,-0.7079,-0.7146,-0.719,-0.7221,-0.7248,-0.7305,-0.7375,-0.7336,-0.736,-0.7341,-0.7391,-0.7513,-0.7343,-0.7343,-0.7376,-0.7647,-0.7681,-0.7705,-0.7489,-0.7492,-0.7495,-0.7646,0,-0.7103,-0.722,-0.7197,-0.7312,-0.7364,-0.7313,-0.7371,-0.7392,-0.739,-0.7434,-0.7431,-0.7482,-0.7425,-0.744,-0.7487,-0.7488,-0.7567,-0.7476,-0.7543,-0.7546,-0.7542,-0.7731,-0.7767,-0.7909,-0.7665,-0.7668,-0.767,0,-0.7293,-0.7326,-0.7446,-0.7459,-0.748,-0.7533,-0.7572,-0.7614,-0.7635,-0.763,-0.7656,-0.7627,-0.7694,-0.7623,-0.7716,-0.7655,-0.768,-0.7684,-0.7689,-0.7697,-0.7619,-0.7747,-0.7954,-0.7976,-0.77,-0.7698,-0.7696,0,-0.7435,-0.7509,-0.759,-0.7605,-0.7622,-0.7661,-0.767,-0.7687,-0.7715,-0.7748,-0.7766,-0.7806,-0.7829,-0.7862,-0.7844,-0.7793,-0.7941,-0.7868,-0.7941,-0.7941,-0.7977,-0.7976,-0.8194,-0.7988,-0.7988,-0.7988,-0.7987,0,-0.7604,-0.768,-0.7654,-0.7705,-0.7788,-0.776,-0.7843,-0.7846,-0.7861,-0.7912,-0.7869,-0.7917,-0.789,-0.7936,-0.7922,-0.8003,-0.8013,-0.8011,-0.8008,-0.8017,-0.8018,-0.8036,-0.8027,-0.7993,-0.7992,-0.7991,-0.799,0,-0.7779,-0.7764,-0.785,-0.7858,-0.7861,-0.7923,-0.7929,-0.7977,-0.797,-0.8034,-0.8048,-0.8038,-0.809,-0.8074,-0.8131,-0.8122,-0.8224,-0.8206,-0.8217,-0.8214,-0.8288,-0.8283,-0.8529,-0.856,-0.8332,-0.8334,-0.8336,0,-0.789,-0.7947,-0.796,-0.7991,-0.8002,-0.8052,-0.8079,-0.8053,-0.8083,-0.8111,-0.8155,-0.8203,-0.824,-0.8326,-0.8324,-0.8367,-0.8351,-0.8434,-0.8358,-0.8366,-0.8356,-0.8354,-0.836,-0.8451,-0.8453,-0.8456,-0.8457,0,-0.809,-0.8079,-0.812,-0.8159,-0.8193,-0.8223,-0.8248,-0.8275,-0.825,-0.8287,-0.8339,-0.8367,-0.8424,-0.8473,-0.8511,-0.852,-0.8486,-0.848,-0.85,-0.8513,-0.8518,-0.8518,-0.8262,-0.8476,-0.8474,-0.8473,-0.8472,-0.8471,-0.8238,-0.8286,-0.8303,-0.8351,-0.8366,-0.8391,-0.8436,-0.8434,-0.8476,-0.852,-0.8501,-0.8562,-0.858,-0.8628,-0.8642,-0.8689,-0.8657,-0.8685,-0.8693,-0.8701,-0.8712,-0.8507,-0.8695,-0.8695,-0.8694,-0.8694,-0.8693,0,-0.8438,-0.8445,-0.8489,-0.8525,-0.8562,-0.8523,-0.8549,-0.8583,-0.8637,-0.8656,-0.8693,-0.8753,-0.8799,-0.88,-0.8843,-0.8881,-0.8866,-0.8893,-0.8892,-0.8895,-0.8736,-0.8716,-0.8905,-0.8905,-0.8905,-0.8905,-0.8905,-0.8905,-0.8546,-0.8627,-0.8618,-0.8705,-0.8712,-0.8771,-0.8789,-0.8811,-0.8827,-0.8895,-0.8933,-0.8933,-0.8945,-0.8988,-0.9029,-0.9028,-0.9047,-0.9081,-0.9074,-0.8927,-0.8906,-0.8886,-0.8868,-0.9085,-0.9085,-0.9229,-0.9231,-0.9232]},{"header":{"parameterUnit":"m.s-1","parameterCategory":1,"la1":30.2991,"la2":30.254,"lo1":-89.0895,"lo2":-89.0444,"dy":0.0017,"dx":0.0017,"nx":28,"ny":28,"refTime":"2025-04-11T09:00:00:Z","depth":0,"parameterNumber":3,"parameterNumberName":"V-component_of_WINDS"},"data":[0,0,0,0,0,0,0,0,0,0,0,0,0,0,0,0,0,0,0,0,0,0,0,0,0,0,0,0,0,0,0,0,0,0,0,0,0,0,0,0,0,0,0,0,0,0,0,0,0,0,0,0,0,0,0,0,0,0,-4.9753,-4.9754,0,-4.99,-4.9902,-4.9904,-4.9841,-4.9837,-4.9834,-4.983,-4.9978,-4.9985,-4.9992,0,0,0,0,0,0,0,0,0,0,0,0,0,-4.9412,-4.9419,-4.9753,-4.9755,-4.9757,-4.99,-4.9902,-4.9904,-4.9842,-4.9837,-4.9833,-4.9829,-4.9975,-4.9984,-4.9993,0,0,0,0,0,0,0,0,0,0,0,0,0,-4.956,-4.9421,-4.9752,-4.9743,-4.9743,-4.99,-4.9902,-4.9905,-4.9842,-4.9837,-4.9832,-4.9827,-4.9972,-4.9983,-4.9994,-5.0167,0,0,-5.0027,-5.0032,0,0,0,0,0,0,0,0,-4.9552,-4.9573,-4.9742,-4.9744,-4.9745,-4.9847,-4.9836,-4.9993,-4.9844,-4.9805,-4.983,-4.9824,-4.9938,-4.9952,-4.9991,-5.0174,-5.0181,-5.0028,-5.0034,-5.0039,-5.0042,0,0,0,0,0,0,0,-4.9542,-4.9566,-4.9811,-4.9745,-4.9746,-4.9729,-4.9744,-4.9865,-4.9899,-4.9808,-4.9803,-4.9822,-4.9938,-4.9981,-4.9994,-5.0183,-5.0028,-5.0037,-5.0044,-5.0048,-5.0515,-5.052,0,0,0,0,0,0,-4.9532,-4.9558,-4.9806,-4.9815,-4.9633,-4.974,-4.9757,-4.9819,-4.9898,-4.9905,-4.9826,-4.9818,-4.9965,-4.9981,-4.9999,-5.0207,-5.0039,-5.0049,-5.0055,-5.0509,-5.0516,-5.0522,0,0,0,0,0,0,-4.9525,-4.9555,-4.98,-4.9686,-4.9716,-4.9751,-4.9822,-4.9825,-4.9868,-4.9912,-4.9917,-4.9864,-4.9961,-4.9983,-5.0126,-5.0211,-5.0054,-5.0064,-5.0502,-5.0511,-5.0519,-5.0625,0,0,0,0,0,0,-4.9515,-4.9552,-4.962,-4.9688,-4.9722,-4.9927,-4.9827,-4.9832,-4.9887,-4.9878,-4.9949,-4.9956,-4.9959,-5.011,-5.0137,-5.0223,-5.0072,-5.0494,-5.0506,-5.0516,-5.0614,-5.0636,-5.0655,0,0,0,0,0,-4.9503,-4.9643,-4.9624,-4.9654,-4.9807,-4.9932,-4.9952,-4.9953,-4.9894,-4.9962,-4.999,-4.9953,-5.0197,-5.0125,-5.0155,-5.0246,-5.0489,-5.0503,-5.0516,-5.0605,-5.0632,-5.0655,0,0,0,0,0,0,-4.9584,-4.9652,-4.9631,-4.9797,-4.986,-4.9921,-5.0007,-4.9982,-5.0061,-5.005,-5.0047,-5.0063,-5.0211,-5.0242,-5.0161,-5.0417,-5.0334,-5.0354,-5.0392,-5.0418,-5.0438,-5.0427,-5.0081,0,0,0,0,0,-4.9621,-4.9718,-4.9772,-4.9913,-4.9945,-4.9971,-5.0025,-5.0021,-5.0085,-5.011,-5.0149,-5.0211,-5.0301,-5.0361,-5.0447,-5.0618,-5.0631,-5.0694,-5.0715,-5.0732,-5.0749,-5.084,-5.0869,-5.0566,-5.0566,-5.0565,0,0,-4.9699,-4.9748,-4.9809,-4.993,-4.9978,-5.0077,-4.9993,-5.0102,-5.0175,-5.0126,-5.0264,-5.0294,-5.0363,-5.052,-5.0591,-5.0551,-5.0836,-5.0749,-5.0762,-5.077,-5.0857,-5.0886,-5.0911,-5.0575,-5.0573,-5.0572,0,0,-4.9891,-4.9938,-5.0061,-5.0111,-5.0184,-5.02,-5.0229,-5.0295,-5.0314,-5.0452,-5.0417,-5.0503,-5.0659,-5.0709,-5.0755,-5.0966,-5.0934,-5.0993,-5.1101,-5.1191,-5.1214,-5.1236,-5.131,-5.1337,-5.101,-5.101,-5.1011,0,-4.9978,-5.0127,-5.0127,-5.0239,-5.0292,-5.0254,-5.0377,-5.0425,-5.0522,-5.056,-5.0513,-5.0708,-5.0751,-5.092,-5.0971,-5.1009,-5.1042,-5.0986,-5.1211,-5.1232,-5.1252,-5.1323,-5.1351,-5.1017,-5.1016,-5.1016,-5.1015,0,-5.023,-5.0334,-5.0424,-5.052,-5.0584,-5.0701,-5.0717,-5.0781,-5.0771,-5.0791,-5.0931,-5.0982,-5.1077,-5.1117,-5.1108,-5.1284,-5.1256,-5.1211,-5.1127,-5.1288,-5.1354,-5.1381,-5.1027,-5.1024,-5.1022,-5.1021,0,0,-5.0478,-5.0572,-5.0605,-5.0648,-5.0726,-5.0805,-5.0919,-5.1014,-5.1069,-5.1136,-5.1231,-5.1364,-5.1322,-5.1375,-5.137,-5.1449,-5.1611,-5.1394,-5.1395,-5.1432,-5.1807,-5.1841,-5.1872,-5.1591,-5.1596,-5.16,-5.1801,0,-5.0676,-5.0878,-5.0881,-5.1066,-5.1161,-5.1125,-5.1224,-5.1282,-5.1304,-5.1386,-5.1409,-5.1503,-5.1441,-5.1472,-5.1548,-5.1576,-5.1686,-5.1561,-5.1678,-5.1682,-5.1662,-5.1907,-5.1943,-5.2131,-5.1827,-5.1831,-5.1835,0,-5.0935,-5.1012,-5.1207,-5.127,-5.131,-5.14,-5.1485,-5.1565,-5.1629,-5.1639,-5.1697,-5.1681,-5.1795,-5.1708,-5.1865,-5.178,-5.1827,-5.1848,-5.1855,-5.1866,-5.1768,-5.1925,-5.219,-5.2219,-5.1876,-5.1872,-5.1869,0,-5.1096,-5.1248,-5.1384,-5.1422,-5.1499,-5.1563,-5.1598,-5.1656,-5.1712,-5.1787,-5.1823,-5.1909,-5.1956,-5.2022,-5.2029,-5.1965,-5.2187,-5.2101,-5.2198,-5.2198,-5.2246,-5.2243,-5.2524,-5.2277,-5.2277,-5.2276,-5.2276,0,-5.1317,-5.1437,-5.1458,-5.1542,-5.1675,-5.1676,-5.1807,-5.1837,-5.1889,-5.1976,-5.195,-5.2032,-5.2036,-5.212,-5.2126,-5.2255,-5.2276,-5.2286,-5.2287,-5.2289,-5.2288,-5.2321,-5.2308,-5.2284,-5.2282,-5.2281,-5.2279,0,-5.1519,-5.1538,-5.1684,-5.1745,-5.1763,-5.1859,-5.191,-5.199,-5.2008,-5.2119,-5.2145,-5.2174,-5.2271,-5.2285,-5.2398,-5.2402,-5.2557,-5.2543,-5.2536,-5.2534,-5.263,-5.2621,-5.2941,-5.2983,-5.2709,-5.2712,-5.2714,0,-5.1659,-5.1751,-5.1822,-5.188,-5.1918,-5.2011,-5.2068,-5.2072,-5.2132,-5.2211,-5.2281,-5.2375,-5.2452,-5.2608,-5.2638,-5.2725,-5.2713,-5.2819,-5.2726,-5.2725,-5.2714,-5.2709,-5.2717,-5.2837,-5.284,-5.2843,-5.2845,0,-5.1906,-5.191,-5.1994,-5.2082,-5.2151,-5.222,-5.2285,-5.2333,-5.2344,-5.2413,-5.2513,-5.2572,-5.2688,-5.2783,-5.2868,-5.2901,-5.2875,-5.2874,-5.2901,-5.2904,-5.2896,-5.2902,-5.2585,-5.2867,-5.2864,-5.2863,-5.2862,-5.2861,-5.2081,-5.2161,-5.2224,-5.2318,-5.2367,-5.2428,-5.2505,-5.2533,-5.2617,-5.2713,-5.2709,-5.2819,-5.2879,-5.2991,-5.303,-5.3115,-5.308,-5.3119,-5.3129,-5.3138,-5.3148,-5.2883,-5.313,-5.313,-5.3129,-5.3128,-5.3128,0,-5.2326,-5.2364,-5.2451,-5.2543,-5.2617,-5.2586,-5.2656,-5.2719,-5.2817,-5.2875,-5.2951,-5.3065,-5.3155,-5.3192,-5.3281,-5.3341,-5.3331,-5.3365,-5.336,-5.3368,-5.3174,-5.3142,-5.3371,-5.3371,-5.3371,-5.3371,-5.3371,-5.3371,-5.2462,-5.2595,-5.2607,-5.2764,-5.2801,-5.2909,-5.2951,-5.3007,-5.3053,-5.3182,-5.3258,-5.3282,-5.3331,-5.3423,-5.3504,-5.3513,-5.3546,-5.3585,-5.3588,-5.3406,-5.3382,-5.3358,-5.3328,-5.3592,-5.3593,-5.3774,-5.3776,-5.3777]}]]